Hourly Data Report for September 14, 2016

All times are specified in Local Standard Time (LST). Add 1 hour to adjust for Daylight Saving Time where and when it is observed.

CHARLOTTETOWN A
PRINCE EDWARD ISLAND

46°17'21.000" N
63°07'09.000" W
48.50 m
8300301
71706
YYG

Download Data

Hourly Data (September 2016)
Hourly Data Report for September 14, 2016
Temp Definition
°C
Dew Point Temp Definition
°C
Rel Hum Definition
%
Wind Dir Definition
10's deg

Wind Spd Definition
km/h
Visibility Definition
km
Stn Press Definition
kPa
Hmdx Definition


Wind Chill Definition


Weather Definition


TIME
00:00 Legend Double Dagger 16.5 11.7 73 22 17 24.1 100.99     LegendNANA
01:00 Legend Double Dagger 16.2 12.6 79 23 18 24.1 100.96     LegendNANA
02:00 Legend Double Dagger 15.8 13.3 85 23 18 24.1 100.95     Clear
03:00 Legend Double Dagger 15.4 13.8 90 22 16 24.1 100.93     LegendNANA
04:00 Legend Double Dagger 15.4 14.1 92 22 18 24.1 100.90     LegendNANA
05:00 Legend Double Dagger 15.4 14.1 92 22 15 24.1 100.90     Clear
06:00 Legend Double Dagger 15.6 14.5 93 22 16 24.1 100.89     LegendNANA
07:00 Legend Double Dagger 16.6 15.0 90 21 19 24.1 100.87     LegendNANA
08:00 Legend Double Dagger 17.3 15.0 86 21 21 24.1 100.84     Mostly Cloudy
09:00 Legend Double Dagger 17.9 15.0 83 21 26 24.1 100.82     LegendNANA
10:00 Legend Double Dagger 19.2 15.3 78 20 30 24.1 100.71     LegendNANA
11:00 Legend Double Dagger 20.2 15.3 73 22 23 24.1 100.67     Mostly Cloudy
12:00 Legend Double Dagger 21.2 15.6 70 22 23 24.1 100.60 26   LegendNANA
13:00 Legend Double Dagger 21.9 15.4 66 21 33 24.1 100.52 26   LegendNANA
14:00 Legend Double Dagger 23.0 16.7 67 21 23 24.1 100.47 28   Mostly Cloudy
15:00 Legend Double Dagger 22.3 16.4 69 23 23 24.1 100.39 27   LegendNANA
16:00 Legend Double Dagger 20.0 17.3 84 25 20 24.1 100.38 25   Rain Showers
17:00 Legend Double Dagger 18.7 17.1 90 25 20 24.1 100.33     Rain Showers
18:00 Legend Double Dagger 18.7 16.7 88 24 19 24.1 100.26     Rain Showers
19:00 Legend Double Dagger 18.3 16.7 90 25 18 16.1 100.34     Rain Showers
20:00 Legend Double Dagger 14.6 13.5 93 33 21 12.9 100.49     Rain Showers
21:00 Legend Double Dagger 13.2 12.3 94 35 19 12.9 100.67     Rain
22:00 Legend Double Dagger 12.3 11.1 92 35 24 24.1 100.70     Rain
23:00 Legend Double Dagger 12.0 9.8 86 36 24 24.1 100.76     Rain

Notes on Data Quality.

Legend

  • E = Estimated
  • M = Missing
  • NA = Not Available
  • ‡ = Partner data that is not subject to review by the National Climate Archives
Date modified: